Three Rivers, MI

10:02 AM EST on December 09, 2016 (GMT -0500)
Three Rivers Municipal-Haines

Weather History for KHAI - March, 2014

Change the Weather History Date:

Saturday, March 15, 2014

  Actual Average Record
Temperature  
Mean Temperature 34 °F -  
Max Temperature 39 °F 46 °F 79 °F (2012)
Min Temperature 29 °F 27 °F 1 °F (1993)
Degree Days  
Heating Degree Days 31    
Moisture  
Dew Point 24 °F    
Average Humidity 63    
Maximum Humidity 76    
Minimum Humidity 45    
Precipitation  
Precipitation 0.00 in - - ()
Sea Level Pressure  
Sea Level Pressure 30.02 in    
Wind  
Wind Speed 11 mph (NW)    
Max Wind Speed 17 mph    
Max Gust Speed 25 mph    
Visibility 10 miles    
Events      
Averages and records for this station are not official NWS values.
T = Trace of Precipitation, MM = Missing Value Source: NWS Daily Summary

Daily Weather History Graph

Daily Weather History Graph

Search for Another Location

Airport or City:

Trip Planner

Search our weather history database for the weather conditions in past years. The results will help you decide how hot, cold, wet, or windy it might be!

Date:

Astronomy

Mar. 15, 2014 Rise Set
Actual Time 7:54 AM EDT 7:48 PM EDT
Civil Twilight 7:26 AM EDT 8:16 PM EDT
Nautical Twilight 6:54 AM EDT 8:49 PM EDT
Astronomical Twilight 6:21 AM EDT 9:22 PM EDT
Moon 7:07 PM EDT (3/15) 7:06 AM EDT (3/15)
Length of Visible Light 12h 50m
Length of Day
11h 54m
Waxing Gibbous, 99% of the Moon is Illuminated
Mar 15
Waxing Gibbous
Mar 16
Full
Mar 23
Last Quarter
Mar 30
New
Apr 7
First Quarter

Hourly Weather History & Observations

Time (EDT) Temp. Windchill Dew Point Humidity Pressure Visibility Wind Dir Wind Speed Gust Speed Precip Events Conditions
12:15 AM 38.8 °F 30.4 °F 30.0 °F 71% 29.80 in 10.0 mi West 15.0 mph 25.3 mph N/A   Mostly Cloudy
12:35 AM 39.2 °F 30.2 °F 30.0 °F 70% 29.80 in 10.0 mi West 17.3 mph 23.0 mph N/A   Scattered Clouds
12:55 AM 38.8 °F 31.6 °F 30.2 °F 71% 29.79 in 10.0 mi West 11.5 mph 18.4 mph N/A   Clear
1:14 AM 38.8 °F 31.6 °F 30.2 °F 71% 29.79 in 10.0 mi West 11.5 mph - N/A   Clear
1:35 AM 38.5 °F 30.7 °F 30.2 °F 72% 29.79 in 10.0 mi West 12.7 mph 18.4 mph N/A   Clear
1:55 AM 38.1 °F 29.8 °F 30.2 °F 73% 29.80 in 10.0 mi West 13.8 mph 21.9 mph N/A   Clear
2:14 AM 37.8 °F 30.2 °F 30.0 °F 74% 29.80 in 10.0 mi West 11.5 mph - N/A   Clear
2:35 AM 37.9 °F 30.9 °F 29.8 °F 73% 29.81 in 10.0 mi West 10.4 mph 18.4 mph N/A   Clear
2:55 AM 37.6 °F 31.0 °F 29.7 °F 73% 29.82 in 10.0 mi West 9.2 mph 17.3 mph N/A   Clear
3:14 AM 37.6 °F 30.5 °F 29.3 °F 72% 29.82 in 10.0 mi West 10.4 mph - N/A   Scattered Clouds
3:35 AM 37.8 °F 30.7 °F 28.4 °F 69% 29.82 in 10.0 mi West 10.4 mph 17.3 mph N/A   Overcast
3:55 AM 38.1 °F 30.7 °F 28.6 °F 69% 29.82 in 10.0 mi West 11.5 mph - N/A   Overcast
4:15 AM 38.3 °F 30.9 °F 28.4 °F 68% 29.82 in 10.0 mi West 11.5 mph - N/A   Overcast
4:35 AM 37.9 °F 29.6 °F 28.9 °F 70% 29.83 in 10.0 mi West 13.8 mph 19.6 mph N/A   Overcast
4:54 AM 37.4 °F 28.5 °F 29.3 °F 73% 29.83 in 10.0 mi West 15.0 mph 23.0 mph N/A   Overcast
5:15 AM 37.4 °F 28.5 °F 29.3 °F 73% 29.84 in 10.0 mi West 15.0 mph 19.6 mph N/A   Overcast
5:35 AM 37.0 °F 29.3 °F 29.3 °F 74% 29.85 in 10.0 mi West 11.5 mph - N/A   Overcast
5:54 AM 36.9 °F 29.1 °F 29.3 °F 74% 29.86 in 10.0 mi West 11.5 mph 17.3 mph N/A   Overcast
6:15 AM 36.9 °F 29.1 °F 29.3 °F 74% 29.87 in 10.0 mi WNW 11.5 mph 18.4 mph N/A   Overcast
6:35 AM 36.5 °F 28.7 °F 29.3 °F 75% 29.88 in 10.0 mi WNW 11.5 mph - N/A   Overcast
6:54 AM 36.0 °F 27.5 °F 28.9 °F 76% 29.89 in 10.0 mi WNW 12.7 mph - N/A   Overcast
7:15 AM 35.2 °F 26.6 °F 27.9 °F 74% 29.90 in 10.0 mi WNW 12.7 mph 18.4 mph N/A   Scattered Clouds
7:35 AM 34.7 °F 26.9 °F 27.1 °F 74% 29.91 in 10.0 mi West 10.4 mph 16.1 mph N/A   Clear
7:54 AM 34.2 °F 26.8 °F 26.4 °F 73% 29.92 in 10.0 mi WNW 9.2 mph - N/A   Clear
8:15 AM 33.8 °F 25.3 °F 26.1 °F 73% 29.94 in 10.0 mi WNW 11.5 mph - N/A   Scattered Clouds
8:35 AM 34.0 °F 26.0 °F 26.2 °F 73% 29.95 in 10.0 mi WNW 10.4 mph 16.1 mph N/A   Mostly Cloudy
8:55 AM 34.3 °F 26.5 °F 26.6 °F 73% 29.96 in 10.0 mi WNW 10.4 mph - N/A   Overcast
9:15 AM 34.3 °F 27.7 °F 26.8 °F 74% 29.97 in 10.0 mi WNW 8.1 mph - N/A   Overcast
9:35 AM 34.7 °F 26.9 °F 27.3 °F 74% 29.99 in 10.0 mi West 10.4 mph - N/A   Overcast
9:55 AM 34.9 °F 26.6 °F 26.8 °F 72% 30.00 in 10.0 mi NW 11.5 mph - N/A   Overcast
10:15 AM 35.6 °F 27.5 °F 26.1 °F 68% 30.01 in 10.0 mi NW 11.5 mph - N/A   Mostly Cloudy
10:34 AM 36.0 °F 28.0 °F 25.0 °F 64% 30.02 in 10.0 mi NNW 11.5 mph - N/A   Mostly Cloudy
10:55 AM 36.1 °F 28.2 °F 25.0 °F 64% 30.03 in 10.0 mi NNW 11.5 mph - N/A   Overcast
11:15 AM 36.5 °F 30.3 °F 24.3 °F 61% 30.04 in 10.0 mi NW 8.1 mph - N/A   Mostly Cloudy
11:34 AM 36.7 °F 28.9 °F 23.0 °F 58% 30.05 in 10.0 mi NNW 11.5 mph 17.3 mph N/A   Mostly Cloudy
11:55 AM 36.7 °F 29.9 °F 23.0 °F 58% 30.05 in 10.0 mi NW 9.2 mph - N/A   Mostly Cloudy
12:15 PM 37.4 °F 30.3 °F 22.6 °F 55% 30.04 in 10.0 mi NNW 10.4 mph - N/A   Scattered Clouds
12:34 PM 37.4 °F 30.3 °F 22.3 °F 54% 30.05 in 10.0 mi NW 10.4 mph 16.1 mph N/A   Clear
12:55 PM 37.6 °F 31.0 °F 22.3 °F 54% 30.07 in 10.0 mi NNW 9.2 mph 16.1 mph N/A   Clear
1:15 PM 38.1 °F 30.2 °F 22.8 °F 54% 30.08 in 10.0 mi WNW 12.7 mph - N/A   Clear
1:34 PM 37.8 °F 30.2 °F 22.6 °F 54% 30.09 in 10.0 mi WNW 11.5 mph 18.4 mph N/A   Clear
1:55 PM 37.8 °F 30.2 °F 22.1 °F 53% 30.09 in 10.0 mi West 11.5 mph - N/A   Clear
2:15 PM 38.3 °F 31.9 °F 22.8 °F 54% 30.10 in 10.0 mi WNW 9.2 mph - N/A   Scattered Clouds
2:35 PM 37.8 °F 31.3 °F 21.7 °F 53% 30.11 in 10.0 mi WNW 9.2 mph 16.1 mph N/A   Scattered Clouds
2:55 PM 37.6 °F 28.1 °F 21.6 °F 52% 30.11 in 10.0 mi NW 17.3 mph 23.0 mph N/A   Scattered Clouds
3:15 PM 37.8 °F 31.3 °F 22.1 °F 53% 30.11 in 10.0 mi NW 9.2 mph - N/A   Scattered Clouds
3:35 PM 37.8 °F 31.3 °F 22.6 °F 54% 30.10 in 10.0 mi NW 9.2 mph - N/A   Clear
3:55 PM 36.9 °F 29.6 °F 21.9 °F 55% 30.11 in 10.0 mi NW 10.4 mph - N/A   Scattered Clouds
4:14 PM 36.5 °F 29.7 °F 21.7 °F 55% 30.11 in 10.0 mi WNW 9.2 mph - N/A   Overcast
4:35 PM 36.7 °F 29.9 °F 21.4 °F 54% 30.12 in 10.0 mi NW 9.2 mph - N/A   Overcast
4:55 PM 37.0 °F 30.4 °F 21.0 °F 52% 30.12 in 10.0 mi NNW 9.2 mph 17.3 mph N/A   Overcast
5:14 PM 37.0 °F 31.0 °F 21.0 °F 52% 30.12 in 10.0 mi NNW 8.1 mph - N/A   Overcast
5:35 PM 36.0 °F 29.0 °F 21.7 °F 56% 30.12 in 10.0 mi WNW 9.2 mph - N/A   Overcast
5:55 PM 35.8 °F 28.3 °F 21.2 °F 55% 30.13 in 10.0 mi NNW 10.4 mph - N/A   Overcast
6:14 PM 35.1 °F 27.9 °F 20.8 °F 56% 30.14 in 10.0 mi WNW 9.2 mph - N/A   Overcast
6:35 PM 34.7 °F 26.4 °F 20.3 °F 56% 30.15 in 10.0 mi NW 11.5 mph - N/A   Overcast
6:55 PM 33.8 °F 25.3 °F 18.9 °F 54% 30.15 in 10.0 mi NW 11.5 mph - N/A   Overcast
7:15 PM 33.4 °F 26.6 °F 19.6 °F 57% 30.16 in 10.0 mi NW 8.1 mph - N/A   Overcast
7:35 PM 32.9 °F 25.3 °F 20.1 °F 59% 30.17 in 10.0 mi WNW 9.2 mph - N/A   Overcast
7:55 PM 32.9 °F 26.7 °F 19.9 °F 59% 30.17 in 10.0 mi NNW 6.9 mph - N/A   Overcast
8:15 PM 32.4 °F 26.0 °F 19.6 °F 59% 30.17 in 10.0 mi NNW 6.9 mph - N/A   Overcast
8:35 PM 32.0 °F 24.2 °F 19.6 °F 60% 30.17 in 10.0 mi North 9.2 mph - N/A   Overcast
8:55 PM 32.0 °F 25.6 °F 18.3 °F 57% 30.18 in 10.0 mi NNW 6.9 mph - N/A   Overcast
9:15 PM 32.0 °F 27.5 °F 18.5 °F 58% 30.19 in 10.0 mi NNW 4.6 mph - N/A   Overcast
9:35 PM 32.0 °F 27.5 °F 19.4 °F 60% 30.21 in 10.0 mi NNW 4.6 mph - N/A   Overcast
9:54 PM 31.6 °F 27.0 °F 19.0 °F 60% 30.22 in 10.0 mi North 4.6 mph - N/A   Overcast
10:15 PM 31.5 °F 23.5 °F 18.1 °F 58% 30.23 in 10.0 mi North 9.2 mph - N/A   Mostly Cloudy
10:35 PM 30.9 °F 25.2 °F 18.3 °F 60% 30.25 in 10.0 mi North 5.8 mph - N/A   Overcast
10:54 PM 30.6 °F 24.7 °F 17.6 °F 59% 30.25 in 10.0 mi NNE 5.8 mph - N/A   Overcast
11:15 PM 30.2 °F 23.4 °F 15.6 °F 55% 30.26 in 10.0 mi North 6.9 mph - N/A   Overcast
11:35 PM 29.8 °F 22.2 °F 10.6 °F 45% 30.26 in 10.0 mi North 8.1 mph - N/A   Scattered Clouds
11:55 PM 29.3 °F 21.5 °F 11.1 °F 47% 30.25 in 10.0 mi North 8.1 mph - N/A   Mostly Cloudy